FW2123 Weather Reports


time (UTC)temp
F
wind
direction
speed
knots
gust
knots
rain 1hr
in
rain 24hr
in
rain mn
in
humidity
%
barometer
mb
20260504151031 64 202 3.5 5.2 0.00 0.00 0.00 53 1016.5
20260504141049 59 200 1.7 2.6 0.00 0.00 0.00 63 1016.7
20260504081028 46 0.0 0.0 0.00 0.00 0.00 88 1017.7
20260504045110 42 0.0 0.0 0.00 0.00 0.00 82 1018.2
20260504044038 42 0.0 0.0 0.00 0.00 0.00 81 1018.2
20260504043023 42 0.0 0.0 0.00 0.00 0.00 81 1018.2
20260504042029 42 0.0 0.0 0.00 0.00 0.00 83 1018.1
20260504041017 42 0.0 0.0 0.00 0.00 0.00 81 1018.0
20260504040022 42 0.0 0.0 0.00 0.00 0.00 79 1018.0
20260504035027 43 0.0 0.0 0.00 0.00 0.00 79 1018.2
20260504034035 43 0.0 0.0 0.00 0.00 0.00 78 1018.2
20260504033020 43 0.0 0.0 0.00 0.00 0.00 77 1018.2
20260504032026 44 0.0 0.0 0.00 0.00 0.00 77 1018.1
20260504031032 44 0.0 0.0 0.00 0.00 0.00 77 1018.0
20260504030019 44 0.0 0.0 0.00 0.00 0.00 77 1018.0
20260504025024 44 0.0 0.0 0.00 0.00 0.00 76 1018.0
20260504024030 45 0.0 0.0 0.00 0.00 0.00 73 1018.0
20260504023018 46 0.0 0.0 0.00 0.00 0.00 73 1017.9
20260504022023 46 0.0 0.0 0.00 0.00 0.00 70 1017.8
20260504021029 46 0.0 0.0 0.00 0.00 0.00 69 1017.7
20260504020016 47 0.0 0.0 0.00 0.00 0.00 67 1017.5
20260504015022 48 0.0 0.0 0.00 0.00 0.00 65 1017.5
20260504014027 48 0.0 0.0 0.00 0.00 0.00 63 1017.3
20260504013015 49 0.0 0.0 0.00 0.00 0.00 63 1017.2
20260504012020 49 0.0 0.0 0.00 0.00 0.00 63 1017.2
20260504011026 50 0.0 0.0 0.00 0.00 0.00 60 1017.2
20260504010025 51 0.0 0.0 0.00 0.00 0.00 60 1017.0
20260504005019 52 0.0 0.0 0.00 0.00 0.00 55 1017.0
20260504004045 52 0.0 0.0 0.00 0.00 0.00 54 1017.0
20260504003024 53 0.0 0.0 0.00 0.00 0.00 54 1017.0
20260504002017 55 0.0 0.0 0.00 0.00 0.00 52 1017.0
20260504001023 56 0.0 0.0 0.00 0.00 0.00 52 1017.0
20260504000022 57 0.0 0.0 0.00 0.00 0.00 51 1016.8
20260503235016 58 0.0 0.0 0.00 0.00 0.00 47 1016.8
20260503234021 59 199 0.9 1.7 0.00 0.00 0.00 42 1016.7
20260503233021 60 0.0 0.0 0.00 0.00 0.00 41 1016.7
20260503232020 61 211 1.7 2.6 0.00 0.00 0.00 39 1016.6
20260503231020 61 198 2.6 5.2 0.00 0.00 0.00 38 1016.5
20260503230019 61 197 1.7 2.6 0.00 0.00 0.00 37 1016.5
20260503225038 62 214 2.6 3.5 0.00 0.00 0.00 37 1016.5
20260503224018 62 334 1.7 3.5 0.00 0.00 0.00 37 1016.5
20260503223018 62 194 2.6 5.2 0.00 0.00 0.00 36 1016.5
20260503222017 62 331 1.7 4.3 0.00 0.00 0.00 37 1016.6
20260503221017 62 316 2.6 4.3 0.00 0.00 0.00 37 1016.7
20260503220016 62 326 2.6 4.3 0.00 0.00 0.00 37 1016.7
20260503215016 62 359 3.5 5.2 0.00 0.00 0.00 36 1016.7
20260503214015 62 279 2.6 5.2 0.00 0.00 0.00 36 1016.8
20260503213015 63 9 2.6 7.0 0.00 0.00 0.00 37 1016.7
20260503212026 63 245 3.5 7.0 0.00 0.00 0.00 37 1016.7
20260503211032 63 197 2.6 6.1 0.00 0.00 0.00 37 1016.7
20260503210019 63 11 1.7 4.3 0.00 0.00 0.00 37 1016.8
20260503205025 64 314 2.6 5.2 0.00 0.00 0.00 37 1017.0
20260503204030 64 289 3.5 7.0 0.00 0.00 0.00 37 1017.2
20260503203038 65 17 3.5 4.3 0.00 0.00 0.00 36 1017.1
20260503202023 65 14 2.6 4.3 0.00 0.00 0.00 37 1017.1
20260503201029 64 3 3.5 7.0 0.00 0.00 0.00 37 1017.2
20260503200016 64 170 3.5 5.2 0.00 0.00 0.00 36 1017.5
20260503195022 65 262 3.5 6.1 0.00 0.00 0.00 38 1017.7
20260503194027 64 223 3.5 6.1 0.00 0.00 0.00 38 1017.9
20260503193015 64 359 4.3 11.3 0.00 0.00 0.00 37 1018.1
20260503192040 63 12 4.3 8.7 0.00 0.00 0.00 38 1018.2
20260503191025 64 336 5.2 12.2 0.00 0.00 0.00 38 1018.2
20260503190111 64 52 3.5 6.1 0.00 0.00 0.00 40 1018.4
20260503185019 63 194 2.6 4.3 0.00 0.00 0.00 41 1018.5
20260503184044 62 223 4.3 7.0 0.00 0.00 0.00 40 1018.5
20260503183030 61 41 3.5 5.2 0.00 0.00 0.00 41 1018.6
20260503182017 61 323 3.5 7.8 0.00 0.00 0.00 43 1018.7
20260503181023 61 157 3.5 7.0 0.00 0.00 0.00 43 1018.7
20260503180048 60 57 3.5 6.1 0.00 0.00 0.00 43 1018.7
20260503175056 59 233 2.6 6.1 0.00 0.00 0.00 44 1018.9
20260503174022 58 34 3.5 6.1 0.00 0.00 0.00 45 1019.1
20260503173027 58 187 2.6 5.2 0.00 0.00 0.00 44 1019.2
20260503172052 56 77 2.6 4.3 0.00 0.00 0.00 47 1019.2
20260503171020 57 348 3.5 6.1 0.00 0.00 0.00 48 1019.2